CAPE
5 0 1 4 3 5 0 0 0 0 0 0 0 0 0 0 0 0 0 0 0 0 0 0 0 0 0 0 0 0 0 0 0 0 0 0 0 0 0 0 0 0 0
3 1 2 4 3 4 5 0 0 0 0 0 0 0 0 0 0 0 0 0 0 0 0 0 0 0 0 0 0 0 0 0 0 0 0 0 0 0 0 0 0 0 0
1 2 1 3 3 6 4 1 1 0 0 0 0 0 0 0 0 0 0 0 0 0 0 0 0 0 0 0 0 0 0 0 0 0 0 0 0 0 0 0 0 0 0
2 1 2 1 3 1 4 8 2 2 0 0 0 0 0 0 0 0 0 0 0 0 0 0 0 0 0 0 0 0 0 0 0 0 0 0 0 0 0 0 0 0 0
2 1 3 2 1 1 1 5 4 2 1 0 0 0 0 0 0 0 0 0 0 0 0 0 0 0 0 0 0 0 0 0 0 0 0 0 0 0 0 0 0 0 0
1 1 3 3 3 0 1 3 5 4 1 0 0 1 0 0 0 0 0 0 0 0 0 0 0 0 0 0 0 0 0 0 0 0 0 0 0 0 0 0 0 0 0
0 1 1 1 3 5 3 2 3 4 2 4 0 0 0 0 0 0 0 0 0 0 0 0 0 0 0 0 0 0 0 0 0 0 0 0 0 0 0 0 0 0 0
0 0 0 0 2 2 1 2 1 2 5 4 4 4 1 1 1 0 0 0 0 0 0 0 0 0 0 0 0 0 0 0 0 0 0 0 0 0 0 0 0 0 0
0 0 0 0 0 1 1 2 2 3 3 4 4 4 4 1 5 1 0 1 6 0 0 0 0 0 0 0 0 0 0 0 0 0 0 5 0 0 0 0 0 0 0
0 0 0 0 0 0 1 1 2 2 3 4 5 3 4 3 5 9 0 1 7 22 20 7 0 0 0 0 0 0 0 0 0 0 0 0 0 0 0 0 0 0 0
0 0 0 0 0 0 0 1 0 2 0 3 4 4 3 3 3 7 9 4 0 1 3 2 1 0 0 0 0 0 0 0 0 1 0 0 0 0 0 0 0 1 1
0 0 0 0 0 0 0 0 0 0 1 1 1 3 3 3 5 6 6 6 6 2 2 3 3 1 0 0 0 0 0 0 0 3 0 0 0 4 0 0 2 0 0
0 0 0 0 0 0 0 0 0 0 0 0 0 0 2 2 2 4 6 4 4 1 4 2 2 2 2 1 0 0 0 0 0 4 2 1 0 0 0 0 0 0 0
0 0 0 0 0 0 0 0 0 0 0 0 0 0 1 1 1 2 3 1 1 1 0 1 1 2 2 0 1 2 1 0 0 0 0 0 0 0 0 0 0 0 0
0 0 0 0 0 0 0 0 0 0 1 0 0 0 0 1 1 2 1 1 2 2 1 0 0 0 1 1 1 1 1 0 0 0 0 0 0 0 0 0 0 0 0
0 0 0 0 0 0 0 0 0 0 0 1 2 2 0 1 2 1 2 2 0 1 2 2 1 1 1 1 1 1 1 2 2 2 2 2 3 0 0 0 0 0 0
0 0 0 0 0 0 0 0 0 0 0 0 0 0 2 3 1 0 1 1 3 0 0 0 0 1 1 1 3 2 0 1 1 2 2 2 2 2 1 1 1 1 1
0 0 0 0 0 0 0 0 0 0 0 0 0 0 0 1 0 0 0 0 0 1 0 0 0 0 0 0 1 1 1 1 1 1 1 1 1 1 2 3 3 2 1
0 0 0 0 0 0 0 0 0 0 0 0 0 0 0 0 0 0 0 0 0 0 1 1 0 0 0 0 0 0 0 1 0 0 0 0 0 1 1 1 1 1 2
0 0 0 0 0 0 0 0 0 0 0 0 0 0 0 0 0 0 0 0 0 0 0 0 0 0 0 0 0 0 0 0 0 0 0 0 0 0 0 0 1 1 1
0 0 0 0 0 0 0 0 0 0 0 0 0 0 1 0 0 0 0 0 0 0 0 0 0 0 0 0 0 0 0 0 0 0 0 0 0 0 0 0 0 0 0
0 0 0 0 0 0 0 0 0 0 0 0 0 0 0 0 0 0 0 0 0 0 0 0 0 0 0 0 0 0 0 0 0 0 0 0 0 1 0 0 0 0 0
0 0 0 0 0 0 0 0 0 0 0 0 0 0 0 0 0 0 0 0 0 0 0 0 0 0 0 0 0 0 0 0 0 0 0 0 0 0 0 0 0 0 0
0 0 0 0 0 0 0 0 0 0 0 0 0 0 0 0 0 0 0 0 0 0 0 0 0 0 0 0 0 0 0 0 0 0 0 0 0 0 0 0 0 0 0
0 0 0 0 0 0 0 0 0 0 0 0 0 0 0 0 0 0 0 0 0 0 0 0 0 0 0 0 0 0 0 0 0 0 0 0 0 0 0 0 0 0 0
0 0 0 0 0 0 0 0 0 0 0 0 0 0 0 0 0 0 0 0 0 0 0 0 0 0 0 0 0 0 0 0 0 0 0 0 0 0 0 0 0 0 0
CIN
-0 -0 -0 -0 -0 -0 -0 -0 -0 -0 -0 -0 -0 -0 -0 -0 -0 -0 -0 -0 -0 -0 -0 -0 -0 -0 -0 -0 -0 -0 -0 -0 -0 -0 -0 -0 -0 -0 -0 -0 -0 -0 -0
-0 -0 -0 -0 -0 -0 -0 -0 -0 -0 -0 -0 -0 -0 -0 -0 -0 -0 -0 -0 -0 -0 -0 -0 -0 -0 -0 -0 -0 -0 -0 -0 -0 -0 -0 -0 -0 -0 -0 -0 -0 -0 -0
-0 -0 -0 -0 -0 -0 -0 -0 -0 -0 -0 -0 -0 -0 -0 -0 -0 -0 -0 -0 -0 -0 -0 -0 -0 -0 -0 -0 -0 -0 -0 -0 -0 -0 -0 -0 -0 -0 -0 -0 -0 -0 -0
-0 -0 -0 -0 -0 -0 -0 -0 -0 -0 -0 -0 -0 -0 -0 -0 -0 -0 -0 -0 -0 -0 -0 -0 -0 -0 -0 -0 -0 -0 -0 -0 -0 -0 -0 -0 -0 -0 -0 -0 -0 -0 -0
-0 -0 -0 -0 -0 -0 -0 -0 -0 -0 -0 -0 -0 -0 -0 -0 -0 -0 -0 -0 -0 -0 -0 -0 -0 -0 -0 -0 -0 -0 -0 -0 -0 -0 -0 -0 -0 -0 -0 -0 -0 -0 -0
-0 -0 -0 -0 -0 -0 -0 -0 -0 -0 -0 -0 -0 -1 -0 -0 -0 -0 -0 -0 -0 -0 -0 -0 -0 -0 -0 -0 -0 -0 -0 -0 -0 -0 -0 -0 -4 -0 -0 -0 -0 -0 -0
-0 -0 -0 -0 -0 -0 -0 -0 -0 -0 -0 -0 -0 -0 -0 -0 -0 -0 -0 -0 -0 -0 -0 -0 -0 -0 -0 -0 -0 -0 -0 -0 -0 -0 -0 -0 -0 -0 -0 -0 -0 -0 -0
-0 -0 -0 -0 -0 -0 -0 -0 -0 -0 -0 -0 -0 -0 -0 -0 -0 -0 -0 -0 -0 -0 -0 -0 -0 -0 -0 -0 -0 -0 -0 -0 -0 -0 -0 -0 -0 -0 -0 -0 -0 -0 -0
-0 -0 -0 -0 -0 -0 -0 -0 -0 -0 -0 -0 -0 -0 -0 -0 -0 -0 -0 -0 -59 -0 -0 -0 -0 -0 -0 -0 -0 -0 -0 -0 -0 -23 -4 -31 -0 -0 -0 -0 -0 -0 -0
-0 -0 -0 -0 -0 -0 -0 -0 -0 -0 -0 -0 -0 -0 -0 -0 -0 -0 -0 -0 -38 -13 -29 -38 -0 -2 -0 -0 -0 -0 -0 -0 -0 -0 -1 -0 -0 -0 -0 -0 -0 -0 -0
-0 -0 -0 -0 -0 -0 -0 -0 -0 -0 -0 -0 -0 -0 -0 -0 -0 -0 -0 -0 -0 -0 -0 -0 -0 -0 -0 -0 -0 -0 -0 -0 -0 -38 -0 -0 -0 -0 -0 -0 -0 -21 -49
-0 -0 -0 -0 -0 -0 -0 -0 -0 -0 -0 -0 -0 -0 -0 -0 -0 -0 -0 -0 -0 -0 -0 -0 -0 -0 -0 -0 -0 -0 -0 -0 -0 -36 -0 -0 -0 -38 -0 -0 -79 -0 -0
-0 -0 -0 -0 -0 -0 -0 -0 -0 -0 -0 -0 -0 -0 -0 -0 -0 -0 -0 -0 -0 -0 -0 -0 -0 -0 -0 -0 -0 -0 -0 -0 -26 -27 -27 -19 -0 -0 -0 -0 -0 -0 -0
-0 -0 -0 -0 -0 -0 -0 -0 -0 -0 -0 -0 -0 -0 -0 -0 -0 -0 -0 -0 -0 -0 -0 -0 -0 -0 -0 -0 -0 -0 -0 -0 -0 -0 -0 -0 -0 -0 -0 -0 -0 -0 -0
-0 -0 -0 -0 -0 -0 -0 -0 -0 -0 -0 -0 -0 -0 -0 -0 -0 -0 -0 -0 -0 -0 -0 -0 -0 -0 -0 -0 -0 -0 -0 -0 -0 -0 -0 -0 -0 -0 -0 -0 -0 -0 -0
-0 -0 -0 -0 -0 -0 -0 -0 -0 -0 -0 -1 -0 -0 -0 -1 -0 -0 -0 -0 -0 -0 -0 -0 -0 -0 -0 -0 -0 -0 -0 -0 -0 -0 -0 -0 -0 -0 -0 -0 -0 -0 -0
-0 -0 -0 -0 -0 -0 -0 -0 -0 -0 -0 -0 -0 -1 -1 -0 -0 -0 -0 -0 -0 -0 -0 -0 -0 -0 -0 -0 -0 -0 -0 -0 -0 -0 -0 -0 -0 -0 -0 -0 -0 -0 -0
-0 -0 -0 -0 -0 -0 -0 -0 -0 -0 -0 -0 -0 -0 -1 -1 -1 -0 -0 -0 -0 -0 -0 -0 -0 -0 -0 -0 -0 -0 -0 -0 -0 -0 -0 -0 -0 -0 -0 -0 -0 -0 -0
-0 -0 -0 -0 -0 -0 -0 -0 -0 -0 -0 -0 -0 -0 -0 -1 -0 -0 -0 -0 -0 -0 -0 -0 -0 -0 -0 -0 -0 -0 -0 -0 -0 -0 -0 -0 -0 -0 -0 -0 -0 -0 -0
-0 -0 -0 -0 -0 -0 -0 -0 -0 -0 -0 -0 -0 -0 -0 -0 -0 -0 -0 -0 -0 -0 -0 -0 -0 -0 -0 -0 -0 -0 -0 -0 -0 -0 -0 -0 -0 -0 -0 -0 -0 -0 -0
-0 -0 -0 -0 -0 -0 -0 -0 -0 -0 -0 -0 -0 -0 -1 -0 -0 -0 -0 -0 -0 -0 -0 -0 -0 -0 -0 -0 -0 -0 -0 -0 -0 -0 -0 -0 -0 -0 -0 -0 -0 -0 -0
-0 -0 -0 -0 -0 -0 -0 -0 -0 -0 -0 -0 -0 -0 -0 -0 -0 -0 -0 -0 -0 -0 -0 -0 -0 -0 -0 -0 -0 -0 -0 -0 -0 -0 -0 -0 -0 -0 -0 -0 -0 -0 -0
-0 -0 -0 -0 -0 -0 -0 -0 -0 -0 -0 -0 -0 -0 -0 -0 -0 -0 -0 -0 -0 -0 -0 -0 -0 -0 -0 -0 -0 -0 -0 -0 -0 -0 -0 -0 -0 -0 -0 -0 -0 -0 -0
-0 -0 -0 -0 -0 -0 -0 -0 -0 -0 -0 -0 -0 -0 -0 -0 -0 -0 -0 -0 -0 -0 -0 -0 -0 -0 -0 -0 -0 -0 -0 -0 -0 -0 -0 -0 -0 -0 -0 -0 -0 -0 -0
-0 -0 -0 -0 -0 -0 -0 -0 -0 -0 -0 -0 -0 -0 -0 -0 -0 -0 -0 -0 -0 -0 -0 -0 -0 -0 -0 -0 -0 -0 -0 -0 -0 -0 -0 -0 -0 -0 -0 -0 -0 -0 -0
-0 -0 -0 -0 -0 -0 -0 -0 -0 -0 -0 -0 -0 -0 -0 -0 -0 -0 -0 -0 -0 -0 -0 -0 -0 -0 -0 -0 -0 -0 -0 -0 -0 -0 -1 -0 -0 -0 -0 -0 -0 -0 -0
Wind_Speed
29 30 26 33 31 36 38 39 39 38 37 36 35 34 33 32 30 28 28 26 25 24 23 21 20 18 17 15 13 12 12 12 12 11 11 11 11 11 12 12 12 13 14
27 27 31 27 30 30 33 38 39 41 39 37 36 35 33 33 32 31 30 27 26 25 24 22 21 19 18 16 15 14 14 13 14 12 11 12 13 14 15 15 14 14 15
26 26 29 25 31 26 33 36 38 40 42 41 39 38 36 34 33 32 31 30 29 27 25 23 21 19 19 18 17 16 16 16 16 15 15 15 16 16 17 17 17 17 16
26 22 23 26 30 29 31 31 27 38 40 44 41 39 39 36 35 34 33 32 32 30 28 26 23 20 19 17 17 16 17 17 17 17 17 17 18 17 18 18 20 18 18
25 25 26 21 23 23 30 31 32 32 36 39 45 43 40 39 38 37 36 34 33 32 31 28 25 22 20 19 18 16 16 17 18 18 19 20 19 18 18 19 20 21 21
25 25 27 25 24 25 26 27 29 29 31 33 38 45 44 42 40 38 37 37 36 34 33 30 27 25 23 21 20 20 18 17 18 19 21 21 21 21 20 20 20 21 23
26 26 27 26 26 26 27 26 25 26 28 31 28 35 43 44 44 39 39 39 38 36 35 33 31 29 26 24 24 22 20 19 19 18 20 21 22 21 20 20 21 21 21
25 26 26 26 27 27 25 26 26 27 26 25 26 26 26 33 42 41 43 41 41 40 38 35 35 33 30 28 26 25 24 22 21 22 23 24 22 22 19 20 20 21 21
25 25 25 25 26 25 25 26 26 26 23 22 23 20 23 29 34 35 40 45 40 38 37 37 36 36 34 31 30 28 26 26 24 23 23 24 25 23 20 19 21 21 23
26 26 24 24 25 25 26 25 23 22 21 21 20 19 19 21 26 27 34 38 42 40 38 39 38 41 37 36 33 30 29 28 25 25 25 25 24 24 20 20 20 22 24
25 26 25 23 24 24 24 24 23 21 19 20 21 19 20 20 23 21 27 30 33 33 35 38 37 38 36 37 36 31 30 27 27 26 28 28 26 25 23 23 22 24 24
24 25 25 24 23 23 23 23 23 23 23 22 23 23 22 19 20 20 19 20 21 22 27 30 32 33 32 35 32 31 26 27 26 27 29 30 29 28 27 26 26 25 24
25 25 24 23 23 23 23 23 23 21 22 24 25 25 23 22 20 19 17 18 16 20 22 25 25 25 27 29 26 27 26 27 25 27 31 32 31 30 27 26 24 24 26
26 25 25 25 24 24 23 23 22 22 22 24 25 26 24 23 21 23 21 20 19 17 17 20 20 20 23 23 27 27 27 27 28 29 30 29 26 24 25 26 25 24 27
26 25 25 25 25 25 25 25 24 21 21 23 23 23 24 25 23 24 25 25 25 23 20 20 21 19 20 23 22 22 23 24 25 25 25 26 28 28 28 27 28 28 29
25 25 26 25 25 25 25 26 24 23 23 22 21 21 23 23 24 25 24 23 23 22 23 24 27 27 27 27 23 23 24 24 24 25 26 26 29 29 28 29 28 30 33
25 25 26 25 25 25 25 26 28 27 25 24 24 24 24 25 25 25 24 23 23 22 24 23 23 23 23 24 23 24 26 26 25 26 26 26 27 27 29 30 30 31 33
25 25 26 26 26 25 25 26 26 28 29 29 28 26 26 25 25 25 25 24 25 23 23 25 25 24 24 24 24 25 25 25 25 25 25 26 28 30 31 32 32 33 35
26 26 26 26 27 26 26 27 27 27 28 29 28 28 27 26 25 25 23 25 26 26 26 26 25 25 25 25 25 26 27 27 26 27 28 28 30 32 33 33 33 34 35
27 28 28 27 28 27 28 28 28 28 28 28 29 29 29 28 28 27 26 26 26 26 26 27 27 26 26 26 26 25 26 26 27 29 29 30 30 32 34 34 33 35 35
29 29 29 28 29 30 30 30 30 30 30 30 29 29 28 28 28 27 27 26 26 27 27 27 27 27 26 26 26 27 27 27 28 28 28 28 29 31 31 32 32 32 35
31 31 30 32 31 31 31 31 31 31 31 31 30 29 28 27 27 27 27 27 27 27 27 27 27 27 27 27 28 28 29 29 28 28 29 28 28 29 30 32 33 34 35
30 31 33 34 34 34 34 32 32 32 32 32 32 32 30 29 28 27 27 26 26 27 27 28 28 28 27 27 27 27 29 29 29 28 30 30 31 33 34 34 35 37 38
28 30 31 32 33 34 34 35 35 33 33 33 33 32 32 31 30 29 28 27 27 27 27 27 27 28 28 29 28 27 28 29 29 30 31 32 34 35 35 37 37 38 38
29 29 30 31 32 32 33 33 34 35 35 35 33 33 33 32 32 30 29 28 28 28 28 27 27 27 28 29 28 29 30 28 29 29 31 33 34 35 36 36 36 37 37
29 29 30 30 30 31 32 33 33 34 35 35 35 34 35 34 34 33 31 30 29 29 29 29 29 28 28 29 29 30 31 31 31 31 31 32 33 33 33 34 35 35 36
Wind_Direction
265 255 265 242 247 243 238 234 234 233 233 233 233 233 234 234 233 234 236 237 235 237 241 241 246 258 262 268 269 266 275 285 289 289 294 292 298 300 307 317 330 342 354
271 267 264 254 253 250 243 240 240 236 234 233 233 234 233 234 234 234 235 235 233 235 236 241 245 251 256 259 260 262 269 277 282 281 283 290 291 295 298 303 312 324 335
274 275 268 261 254 257 248 247 245 241 239 236 234 234 234 234 234 235 236 238 238 239 238 238 241 243 249 251 255 260 267 272 277 280 279 284 287 292 295 298 303 310 322
273 277 282 268 264 266 260 251 254 243 244 240 237 235 236 235 236 235 236 238 240 241 240 239 241 237 239 242 247 253 261 267 273 275 277 280 284 288 292 294 296 305 312
273 274 274 290 278 274 266 253 255 249 251 245 241 239 236 236 237 237 239 239 240 241 242 241 240 236 235 237 243 248 254 262 268 269 273 276 279 283 285 292 294 300 306
277 276 276 279 282 275 277 269 264 265 260 258 252 241 237 237 238 235 238 241 241 240 241 241 242 237 237 236 242 249 249 250 261 266 270 271 274 279 283 287 292 297 300
280 279 278 279 280 282 281 277 273 271 264 260 264 251 247 242 238 235 236 240 241 241 242 243 244 245 240 244 246 246 249 249 258 262 266 270 274 276 280 283 288 294 299
280 281 283 283 282 282 283 279 275 268 270 265 266 263 257 257 253 240 236 239 242 243 244 244 245 245 242 244 245 246 249 251 256 265 268 271 273 277 277 282 287 292 299
281 285 288 286 285 284 282 281 281 274 274 280 275 274 265 272 269 250 240 237 240 244 245 245 245 247 243 239 243 242 247 253 258 264 268 271 273 274 275 280 282 286 291
283 285 291 290 287 286 283 283 283 282 278 276 278 286 286 278 291 262 248 241 245 248 250 249 244 247 245 239 233 239 242 251 256 262 267 270 273 274 271 272 276 280 288
286 286 287 293 291 291 287 285 283 281 284 284 279 285 287 288 290 280 269 259 256 250 251 252 255 252 242 236 225 235 244 251 256 261 265 267 269 271 272 272 275 278 282
287 286 286 288 292 294 291 289 285 281 279 278 278 280 288 296 303 300 293 285 267 254 251 259 255 256 249 244 244 238 242 251 257 260 262 265 268 270 271 271 274 277 282
287 285 287 289 289 293 289 290 287 287 280 278 278 279 283 292 296 299 306 299 289 268 261 258 266 255 251 246 246 245 249 253 254 261 264 267 270 271 273 273 276 279 283
286 285 285 287 288 287 285 288 288 286 283 279 277 277 283 286 289 285 289 283 283 285 281 268 271 262 255 250 254 260 259 256 260 263 268 272 275 272 273 275 275 277 282
286 287 286 286 286 285 283 282 283 290 292 284 281 283 281 280 287 288 286 283 278 278 280 273 270 266 263 259 272 271 268 270 269 270 267 271 272 270 272 277 278 281 280
288 286 285 286 286 285 283 280 285 287 288 291 293 291 287 288 288 287 284 289 286 281 277 273 270 273 270 266 269 272 275 275 274 277 278 275 274 275 274 277 281 282 284
288 285 283 284 284 285 284 283 279 281 284 286 289 290 290 288 291 290 287 286 288 284 274 276 274 277 275 272 275 274 273 277 281 280 281 283 281 282 281 280 282 284 286
288 287 286 285 285 286 285 284 283 280 277 279 283 286 288 289 290 292 289 284 281 283 281 277 277 280 280 281 281 282 282 283 285 284 285 286 285 283 283 283 284 285 286
288 287 286 286 285 285 284 284 284 283 280 280 282 282 287 289 290 291 290 282 279 278 279 277 280 281 282 283 284 284 285 286 288 285 285 285 286 285 285 286 287 288 288
287 286 286 286 285 285 283 283 282 283 283 281 281 281 285 285 283 284 285 283 281 280 280 279 281 282 283 284 286 287 288 288 288 287 287 288 289 288 286 286 288 288 289
288 287 285 284 283 284 283 282 280 281 281 282 281 283 286 284 283 282 282 283 283 282 282 282 282 283 286 287 287 287 289 290 290 290 290 291 293 291 292 291 291 293 291
284 284 285 282 284 283 283 282 281 280 279 279 281 282 285 285 285 283 282 282 284 284 285 284 283 284 286 287 287 287 288 288 290 293 293 294 293 293 293 293 293 293 294
287 285 282 281 280 281 280 281 280 280 279 278 279 280 281 282 283 285 284 284 286 286 286 286 285 285 288 290 291 290 289 290 292 294 292 292 290 290 292 294 294 294 295
292 288 286 284 283 281 279 278 277 280 279 278 278 278 278 279 279 282 283 284 285 286 287 287 288 287 287 288 289 292 292 292 293 292 291 289 289 290 292 293 293 294 296
294 292 289 287 285 284 283 281 279 277 277 277 278 277 277 278 278 280 281 282 284 286 287 287 288 289 289 290 291 292 293 296 295 294 293 291 291 292 293 294 295 296 298
294 292 291 290 288 286 284 283 282 281 279 279 278 277 276 277 278 278 278 278 280 282 283 285 286 288 289 289 290 292 293 294 295 295 294 294 294 295 295 296 297 299 300